Regional Weather Roundup
Issued by NWS Green Bay, WI

Home | Current Version | Previous Version | Text Only | Print | Product List | Glossary On
Versions: 1 2 3 4 5 6 7 8 9 10 11 12 13 14 15 16 17 18 19 20 21 22 23 24 25 26 27 28 29 30 31 32 33 34 35 36 37 38 39 40 41 42 43 44 45 46 47 48 49 50
000
ASUS43 KGRB 190610
RWRGRB

NORTH-CENTRAL AND NORTHEAST WISCONSIN REGIONAL WEATHER ROUNDUP
NATIONAL WEATHER SERVICE GREEN BAY WI
100 AM CDT FRI SEP 19 2014

WIZ005-009-010>012-018-019-190700-
NORTH CENTRAL WISCONSIN

CITY           SKY/WX    TMP DP  RH WIND       PRES   REMARKS
IRONWOOD       PTCLDY    50  48  93 S13G23    30.02S
MANITOWISH WTR CLOUDY    49  49 100 S10       30.08S
ARBOR VITAE    CLOUDY    52  50  92 S10       30.08F
EAGLE RIVER    MOCLDY    45  45 100 CALM      30.09F FOG
LAND O LAKES   CLOUDY    47  46  99 S3        30.10F FOG
RHINELANDER    MOCLDY    47  46  97 S7        30.11S FOG
PHILLIPS       PTCLDY    49  48  95 S9        30.07S
ANTIGO         FOG       47  47  99 SE8       30.13F VSB 1
TOMAHAWK       MOCLDY    46  45  96 CALM      30.11R FOG
MERRILL        CLEAR     47  47  99 SE5       30.11R FOG
$$

WIZ013-073-190700-
NORTHEAST WISCONSIN

CITY           SKY/WX    TMP DP  RH WIND       PRES   REMARKS
IRON MOUNTAIN  CLEAR     42  40  92 SE5       30.13F
MARINETTE      CLEAR     43  41  93 CALM      30.15F
OCONTO         CLEAR     41  41 100 CALM      30.16F
$$

WIZ017-030-035>037-045-190700-
CENTRAL WISCONSIN

CITY           SKY/WX    TMP DP  RH WIND       PRES   REMARKS
MEDFORD        CLEAR     49  48  97 SE8       30.09R FOG
WAUSAU         MOCLDY    47  46  97 E5        30.11F FOG
MOSINEE        MOCLDY    46  46 100 SE7       30.12S FOG
MARSHFIELD     CLEAR     50  48  93 S7        30.10S FOG
WISC RAPIDS    CLEAR     51  49  92 SE8       30.11F
STEVENS POINT  CLEAR     47  47  99 SE7       30.12F FOG
WAUPACA        CLEAR     49  48  95 SE5       30.14F
SHAWANO        CLEAR     48  46  93 CALM      30.15F
CLINTONVILLE   CLEAR     45  43  93 SE3       30.14F
$$

WIZ038-039-048-051-190700-
FOX VALLEY

CITY           SKY/WX    TMP DP  RH WIND       PRES   REMARKS
NWS GREEN BAY  CLEAR     45  44  97 CALM      30.16F FOG
APPLETON       CLEAR     48  46  93 SE7       30.16S
OSHKOSH        CLEAR     45  45 100 S5        30.15F
FOND DU LAC    CLEAR     46  44  93 SE5       30.16F
$$

WIZ022-050-052-190700-
EAST CENTRAL WISCONSIN

CITY           SKY/WX    TMP DP  RH WIND       PRES   REMARKS
STURGEON BAY   CLEAR     46  43  87 CALM      30.17F
MANITOWOC      CLEAR     44  43  96 CALM      30.18S FOG
SHEBOYGAN      CLEAR     42  40  92 SW3       30.17F FOG
$$

LMZ563-521-522-541>543-190700-
LAKESHORE

STATION/POSITION TIME  TEMP    WIND        PRES    VSBY  WAVE
                       AIR SEA DIR/SP/G                  HT/PER
                 (UTC) (F)     (DEG/KT/KT) (MB)    (MI)  (FT/S)
SHEBOYGAN LKSHOR 0600   50 49  260/  3/  3 1022.3F
KEWAUNEE LKSHORE 0600   46     300/  3/  3 1020.7F
NORTHPORT PIER   0600   50     180/  4/  6 1021.3S
N MID LAKE BUOY  0600   56 58  170/  8/ 10 1021.7F         0
S GREEN BAY BUOY 0500   54     VRB  8/ 10  1022.4R
CHAMBERS ISLAND  0600   47     130/  2/  5 1021.7F
MENOMINEE LKSHOR 0600   54     160/  6/  8 1021.7F
$$


USA.gov is the U.S. government's official web portal to all federal, state and local government web resources and services.